Location: Ellingshausen
(50.5460°N, 10.4723°E)
Time: 19:58:34
(UTC+00:00)

Cosmos 1140 Rocket - Pass Details

Date: 18 January 2026
Orbit: 739 x 763 km, 74.1° (Epoch: 16 February)

Event Time Altitude Azimuth Distance (km) Brightness Sun altitude
Rises 04:29:01 0° 187° (S) 3,162 6.6 -25.1°
Reaches altitude 10° 04:31:24 10° 183° (S) 2,245 5.9 -24.7°
Maximum altitude 04:36:20 53° 107° (ESE) 912 4.2 -23.9°
Drops below altitude 10° 04:41:19 10° 32° (NNE) 2,272 6.3 -23.1°
Sets 04:43:43 0° 28° (NNE) 3,204 7.0 -22.7°
